カタログに戻る

STARLINK-36783

運用中通信VLEO
NORAD 67873·PAYLOAD·🇺🇸 United States

打ち上げ Feb 20, 2026 から Vandenberg Space Force Base

Loading…

次のパス (今後24時間)

TLE

最新Source: CelesTrak SupGP

元期: Sep 14, 2026, 22:36 UTC

1 67873C 26034Z   26257.94215278  .00020931  00000+0  61834-3 0  2572
2 67873  53.1590  40.0199 0001125  66.7307 300.5855 15.34384317    13

AllMySatでSTARLINK-36783をリアルタイム追跡

Download on the App Store